Location: Muenchen
(48.1800°N, 11.5800°E)
Time: 01:45:27
(UTC+02:00)

Vanguard 2 Rocket - Visible Passes

Search period start: 20 October 2017 00:00
Search period end: 29 October 2017 23:00
Orbit: 555 x 3327 km, 32.9° (Epoch: 18 October)

Date Brightness Start Highest point End Pass type
(mag) Time Alt. Az. Time Alt. Az. Time Alt. Az.
20 Oct 11.0 20:11:50 10° WSW 20:17:43 13° SSW 20:24:30 10° S visible
21 Oct 10.8 19:10:20 10° WSW 19:17:29 17° SSW 19:26:30 10° S visible
24 Oct 10.9 18:27:10 10° SW 18:31:34 13° SSW 18:36:49 10° S visible
